Flag for U.S.A. Weather past 2 weeks in Dover, Delaware, U.S.A.

Now
38 °F

Overcast.


Feels Like: 31 °F
Forecast: 25 / 40 °F
Wind: 9 mph from Northwest

Location: Dover Air Force Base

Current Time: Dec 21, 2014 at 12:29:00 PM

Latest Report: Dec 21, 2014 at 11:58 AM


Visibility: 10 mi

Pressure: 30.31 "Hg

Humidity: 59%

Dew point: 25 °F

Location of DoverLocation

Historic Weather in Dover — Graph

°F

Dover temperature yesterday

Maximum temperature yesterday: 36 °F (at 12:58 PM)
Minimum temperature yesterday: 27 °F (at 5:58 AM)
Average temperature yesterday: 31 °F

Past Weeks' High & Low Weather Summary

 TemperatureHumidityPressure
High53 °F (Dec 17, 11:58 AM)100% (Dec 6, 10:03 AM)30.57 "Hg (Dec 6, 10:03 AM)
Low27 °F (Dec 20, 5:58 AM)40% (Dec 7, 4:58 PM)29.70 "Hg (Dec 10, 2:58 PM)
Average39 °F76%30.06 "Hg
* Reported Dec 6 10:03 AM — Dec 21 10:58 AM, Dover, Weather by CustomWeather, © 2014

Note: Actual official high and low records may vary slightly from our data, if they occured in-between our weather recording intervals... More about our weather records

Advertising

Dover weather history for previous 24 hours

 ConditionsComfort  
Time TempWeatherWind HumidityBarometerVisibility
10:58 AM
Dec 21
36 °FOvercast.5 mph63%30.34 "Hg10 mi
9:58 AM35 °FOvercast.5 mph67%30.35 "Hg10 mi
8:58 AM33 °FOvercast.5 mph74%30.33 "Hg10 mi
7:58 AM32 °FOvercast.2 mph82%30.32 "Hg10 mi
6:58 AM32 °FOvercast.3 mph80%30.32 "Hg10 mi
5:58 AM31 °FOvercast.5 mph81%30.31 "Hg10 mi
4:58 AM31 °FOvercast.1 mph89%30.29 "Hg10 mi
2:58 AM29 °FOvercast.3 mph91%30.30 "Hg10 mi
1:58 AM27 °FClear.2 mph92%30.29 "Hg10 mi
12:58 AM30 °FPassing clouds.1 mph87%30.29 "Hg10 mi
11:58 PM
Dec 20
31 °FMostly cloudy.No wind88%30.29 "Hg10 mi
10:58 PM31 °FMostly cloudy.No wind88%30.30 "Hg10 mi
9:58 PM30 °FOvercast.1 mph83%30.29 "Hg10 mi
8:58 PM29 °FOvercast.No wind82%30.28 "Hg10 mi
7:58 PM29 °FPassing clouds.3 mph81%30.29 "Hg10 mi
6:58 PMN/APassing clouds.No windN/A30.29 "Hg10 mi
5:58 PM31 °FOvercast.1 mph74%30.27 "Hg10 mi
4:58 PM33 °FOvercast.2 mph70%30.27 "Hg10 mi
3:58 PM34 °FOvercast.5 mph68%30.26 "Hg10 mi
2:58 PM35 °FOvercast.5 mph66%30.25 "Hg10 mi
1:58 PM35 °FPartly sunny.3 mph68%30.25 "Hg10 mi
1:03 PM36 °FScattered clouds.3 mph65%30.25 "Hg10 mi
12:58 PM36 °FPartly sunny.3 mph65%30.26 "Hg10 mi
Weather by CustomWeather, © 2014

See weather overviewHow to use our weather pages